Weather History for St. Petersburg, FL

Change the Weather History Date:

Saturday, August 24, 2013

  Actual Average Record
Temperature  
Mean Temperature 86 °F -  
Max Temperature 93 °F 89 °F 96 °F (2014)
Min Temperature 79 °F 75 °F 66 °F (1957)
Cooling Degree Days 22    
Growing Degree Days 36 (Base 50)    
Moisture  
Dew Point 76 °F    
Average Humidity 77    
Maximum Humidity 88    
Minimum Humidity 54    
Precipitation  
Precipitation 0.00 in - - ()
Sea Level Pressure  
Sea Level Pressure 30.04 in    
Wind  
Wind Speed 9 mph (SE)    
Max Wind Speed 33 mph    
Max Gust Speed 39 mph    
Visibility 10 miles    
Events Rain , Thunderstorm    
Averages and records for this station are not official NWS values.
T = Trace of Precipitation, MM = Missing Value Source: NWS Daily Summary

Daily Weather History Graph

Daily Weather History Graph

Search for Another Location

Airport:

Trip Planner

Search our weather history database for the weather conditions in past years. The results will help you decide how hot, cold, wet, or windy it might be!

Date:

Astronomy

Aug. 24, 2013 Rise Set
Actual Time 7:05 AM EDT 7:59 PM EDT
Civil Twilight 6:41 AM EDT 8:23 PM EDT
Nautical Twilight 6:13 AM EDT 8:51 PM EDT
Astronomical Twilight 5:43 AM EDT 9:21 PM EDT
Moon 10:21 PM EDT (8/24) 10:38 AM EDT (8/24)
Length of Visible Light 13h 42m
Length of Day
12h 53m
Waning Gibbous, 84% of the Moon is Illuminated
Aug 24
Waning Gibbous
Aug 28
Last Quarter
Sep 5
New
Sep 12
First Quarter
Sep 19
Full

Hourly Weather History & Observations

Time (EDT) Temp. Heat Index Dew Point Humidity Pressure Visibility Wind Dir Wind Speed Gust Speed Precip Events Conditions
12:53 AM 81.0 °F 87.3 °F 75.9 °F 85% 30.01 in 10.0 mi SE 8.1 mph - N/A   Clear
1:53 AM 82.0 °F 89.4 °F 75.9 °F 82% 30.00 in 10.0 mi SE 9.2 mph - N/A   Clear
2:53 AM 81.0 °F 87.3 °F 75.9 °F 85% 30.00 in 10.0 mi SE 9.2 mph - N/A   Clear
3:53 AM 81.0 °F 87.3 °F 75.9 °F 85% 30.00 in 10.0 mi SSE 9.2 mph - N/A   Clear
4:53 AM 81.0 °F 87.3 °F 75.9 °F 85% 29.99 in 10.0 mi SSE 6.9 mph - N/A   Clear
5:53 AM 81.0 °F 87.3 °F 75.9 °F 85% 30.00 in 10.0 mi SSE 6.9 mph - N/A   Clear
6:53 AM 81.0 °F 87.3 °F 75.9 °F 85% 30.00 in 10.0 mi SSE 9.2 mph - N/A   Clear
7:53 AM 81.0 °F 87.3 °F 75.9 °F 85% 30.02 in 10.0 mi SSE 10.4 mph - N/A   Clear
8:53 AM 82.0 °F 90.2 °F 77.0 °F 85% 30.04 in 10.0 mi SSE 6.9 mph - N/A   Clear
9:53 AM 82.9 °F 91.8 °F 77.0 °F 82% 30.06 in 10.0 mi SSE 6.9 mph - N/A   Clear
10:53 AM 84.9 °F 95.3 °F 77.0 °F 77% 30.08 in 10.0 mi SSE 6.9 mph - N/A   Clear
11:53 AM 87.1 °F 98.8 °F 77.0 °F 72% 30.08 in 10.0 mi South 5.8 mph - N/A   Clear
12:53 PM 89.1 °F 101.4 °F 77.0 °F 67% 30.07 in 10.0 mi Calm Calm - N/A   Clear
1:53 PM 90.0 °F 100.2 °F 75.0 °F 61% 30.06 in 10.0 mi Calm Calm - N/A   Clear
2:53 PM 91.9 °F 101.3 °F 73.9 °F 55% 30.04 in 10.0 mi Calm Calm - N/A   Clear
3:53 PM 93.0 °F 103.2 °F 73.9 °F 54% 30.02 in 10.0 mi Calm Calm - N/A   Clear
4:37 PM 86.0 °F 95.1 °F 75.0 °F 70% 30.02 in 10.0 mi North 13.8 mph - N/A Thunderstorm Partly Cloudy
4:46 PM 87.1 °F 95.4 °F 73.9 °F 65% 30.02 in 10.0 mi NNE 13.8 mph - N/A   Clear
4:53 PM 87.1 °F 95.4 °F 73.9 °F 65% 30.02 in 10.0 mi North 9.2 mph - N/A   Clear
5:53 PM 88.0 °F 97.5 °F 75.0 °F 65% 30.01 in 10.0 mi NNE 12.7 mph - N/A   Clear
6:31 PM 82.9 °F 90.8 °F 75.9 °F 79% 30.07 in 10.0 mi ENE 33.4 mph 39.1 mph N/A   Mostly Cloudy
6:53 PM 82.0 °F 89.4 °F 75.9 °F 82% 30.06 in 10.0 mi ENE 24.2 mph - N/A   Overcast
7:53 PM 80.1 °F 85.1 °F 75.0 °F 85% 30.07 in 10.0 mi East 15.0 mph - 0.00 in   Mostly Cloudy
8:53 PM 81.0 °F 86.7 °F 75.0 °F 82% 30.07 in 10.0 mi SE 11.5 mph - 0.00 in Rain Light Rain
9:53 PM 80.1 °F 84.5 °F 73.9 °F 81% 30.09 in 10.0 mi ESE 15.0 mph - 0.00 in   Mostly Cloudy
10:53 PM 80.1 °F 85.1 °F 75.0 °F 85% 30.09 in 10.0 mi SE 15.0 mph - N/A   Partly Cloudy
11:23 PM 80.1 °F 85.4 °F 75.9 °F 87% 30.11 in 10.0 mi SE 12.7 mph - N/A   Mostly Cloudy
11:53 PM 79.0 °F - 75.0 °F 88% 30.11 in 10.0 mi SE 13.8 mph - N/A   Mostly Cloudy